Weather in Kalnybolota

Ukraine / Kirovohrad Region     48°45′00″N   30°59′20″E
temp.,
°C
wind,
m/s
gust,
m/s
humid.,
%
clouds,
%
prec.,
mm/h
press.,
hPa
HPBL,
m
16 april, fri
fri1600:00+7sw228592 0.0 101117
03:00+7w239494 0.3 101167
06:00+7nw2393100 0.4 1011137
09:00+7nw3392100 1.1 1011337
12:00+7w2494100 4.4 1011374
15:00+3wsw6797100 15.4 1014525
18:00+4wsw51097100 4.6 1014695
21:00+5w6994100 7.0 1015824
17 april, sat
sat1700:00+5w5888100 0.6 1016648
03:00+4w5988100 0.6 1017573
06:00+4wsw4887100 0.0 1018530
09:00+5w578099 0.0 1019734
12:00+5wsw5889100 0.1 1020743
15:00+7w587685 0.1 1020911
18:00+8w456956 0.0 1020925
21:00+6nw227850 0.0 102038
18 april, sun
sun1800:00+4wnw118546 0.0 102010
03:00+3sw11885 0.0 102010
06:00+3wsw229063 0.0 101912
09:00+7w347640 0.0 1019416
12:00+12wsw466082 0.0 1017980
15:00+14wsw565199 0.0 10171689
18:00+13wsw3455100 0.0 10161171
21:00+10nnw237199 0.1 101765
19 april, mon
mon1900:00+8nne3589100 0.0 1017126
03:00+6ne348999 0.0 1016106
06:00+6ne3584100 0.0 1016182
09:00+7ne3480100 0.0 1016198
12:00+10ne446778 0.0 1014620
15:00+13ne455799 0.0 10131481
18:00+12ne4665100 0.1 1011335
21:00+10ne4975100 0.1 1009317
20 april, tue
tue2000:00+8nne5118470 0.0 1005415
03:00+8nne71390100 0.1 1002606
06:00+7n81396100 7.6 998637
09:00+7nnw81295100 19.1 996795
12:00+7nw91393100 6.6 996996
15:00+8nw71386100 12.3 9991191
18:00+9wnw81369100 0.5 1001863
21:00+7w5127789 0.5 1005305